28.03.2024;11:23;4,23
28.03.2024;11:08;4,23
28.03.2024;10:53;4,23
28.03.2024;10:38;4,23
28.03.2024;10:23;4,23
28.03.2024;10:08;4,23
28.03.2024;09:53;4,23
28.03.2024;09:38;4,23
28.03.2024;09:23;4,23
28.03.2024;09:08;4,23
28.03.2024;08:53;4,23
28.03.2024;08:38;4,23
28.03.2024;08:23;4,23
28.03.2024;08:08;4,23
28.03.2024;07:53;4,23
28.03.2024;07:38;4,23
28.03.2024;07:23;4,24
28.03.2024;07:08;4,23
28.03.2024;06:52;4,23
28.03.2024;06:37;4,23
28.03.2024;06:22;4,23
28.03.2024;06:07;4,23
28.03.2024;05:52;4,24
28.03.2024;05:37;4,24
28.03.2024;05:22;4,23
28.03.2024;05:07;4,23
28.03.2024;04:52;4,24
28.03.2024;04:37;4,24
28.03.2024;04:22;4,24
28.03.2024;04:07;4,24
28.03.2024;03:52;4,24
28.03.2024;03:37;4,24
28.03.2024;03:22;4,24
28.03.2024;03:07;4,24
28.03.2024;02:52;4,24
28.03.2024;02:37;4,24
28.03.2024;02:22;4,24
28.03.2024;02:07;4,24
28.03.2024;01:52;4,24
28.03.2024;01:37;4,24
28.03.2024;01:22;4,24
28.03.2024;01:07;4,24
28.03.2024;00:52;4,24
28.03.2024;00:37;4,24
28.03.2024;00:22;4,24
28.03.2024;00:07;4,24
27.03.2024;23:52;4,24
27.03.2024;23:22;4,24
27.03.2024;23:07;4,24
27.03.2024;22:52;4,24
27.03.2024;22:37;4,24
27.03.2024;22:22;4,24
27.03.2024;22:07;4,24
27.03.2024;21:52;4,24
27.03.2024;21:37;4,24
27.03.2024;21:22;4,24
27.03.2024;21:07;4,24
27.03.2024;20:52;4,24
27.03.2024;20:37;4,24
27.03.2024;20:07;4,24
27.03.2024;19:52;4,24
27.03.2024;19:37;4,24
27.03.2024;19:22;4,24
27.03.2024;19:07;4,24
27.03.2024;18:52;4,24
27.03.2024;18:37;4,24
27.03.2024;18:22;4,24
27.03.2024;18:07;4,24
27.03.2024;17:52;4,24
27.03.2024;17:37;4,24
27.03.2024;17:22;4,24
27.03.2024;16:52;4,25
27.03.2024;16:37;4,25
27.03.2024;16:22;4,24
27.03.2024;16:07;4,24
27.03.2024;15:52;4,24
27.03.2024;15:37;4,24
27.03.2024;15:22;4,24
27.03.2024;15:07;4,24
27.03.2024;14:51;4,25
27.03.2024;14:21;4,25
27.03.2024;14:06;4,24
27.03.2024;13:51;4,24
27.03.2024;13:36;4,24
27.03.2024;13:21;4,25
27.03.2024;13:06;4,24
27.03.2024;12:51;4,24
27.03.2024;12:36;4,24
27.03.2024;12:21;4,25
27.03.2024;12:06;4,25
27.03.2024;11:51;4,25
27.03.2024;11:36;4,25
27.03.2024;11:21;4,25
27.03.2024;11:06;4,25
27.03.2024;10:51;4,25
27.03.2024;10:36;4,25
27.03.2024;10:21;4,25
27.03.2024;10:06;4,25
27.03.2024;09:51;4,25
27.03.2024;09:36;4,25
27.03.2024;09:21;4,25
27.03.2024;09:06;4,25
27.03.2024;08:51;4,25
27.03.2024;08:36;4,25
27.03.2024;08:21;4,25
27.03.2024;08:06;4,25
27.03.2024;07:51;4,25
27.03.2024;07:36;4,25
27.03.2024;07:21;4,25
27.03.2024;07:06;4,25
27.03.2024;06:51;4,25
27.03.2024;06:36;4,25
27.03.2024;06:21;4,25
27.03.2024;06:06;4,25
27.03.2024;05:51;4,25
27.03.2024;05:36;4,25
27.03.2024;05:21;4,25
27.03.2024;05:06;4,25
27.03.2024;04:51;4,25
27.03.2024;04:36;4,25
27.03.2024;04:21;4,25
27.03.2024;04:06;4,25
27.03.2024;03:51;4,25
27.03.2024;03:36;4,25
27.03.2024;03:21;4,26
27.03.2024;03:06;4,26
27.03.2024;02:51;4,26
27.03.2024;02:36;4,26
27.03.2024;02:21;4,26
27.03.2024;02:06;4,26
27.03.2024;01:51;4,26
27.03.2024;01:36;4,26
27.03.2024;01:21;4,26
27.03.2024;01:06;4,26
27.03.2024;00:51;4,26
27.03.2024;00:36;4,26
27.03.2024;00:21;4,26
27.03.2024;00:06;4,26
26.03.2024;23:51;4,26
26.03.2024;23:36;4,26
26.03.2024;23:21;4,26
26.03.2024;23:05;4,26
26.03.2024;22:50;4,26
26.03.2024;22:35;4,26
26.03.2024;22:20;4,26
26.03.2024;22:05;4,26
26.03.2024;21:50;4,26
26.03.2024;21:35;4,26
26.03.2024;21:20;4,26
26.03.2024;21:05;4,26
26.03.2024;20:50;4,26
26.03.2024;20:35;4,26
26.03.2024;20:20;4,26
26.03.2024;20:05;4,26
26.03.2024;19:50;4,26
26.03.2024;19:35;4,27
26.03.2024;19:20;4,26
26.03.2024;19:05;4,26
26.03.2024;18:50;4,26
26.03.2024;18:35;4,27
26.03.2024;18:20;4,26
26.03.2024;18:05;4,26
26.03.2024;17:50;4,27
26.03.2024;17:35;4,26
26.03.2024;17:20;4,26
26.03.2024;17:05;4,26
26.03.2024;16:50;4,26
26.03.2024;16:35;4,27
26.03.2024;16:20;4,27
26.03.2024;16:05;4,26
26.03.2024;15:50;4,26
26.03.2024;15:35;4,26
26.03.2024;15:20;4,26
26.03.2024;15:05;4,26
26.03.2024;14:50;4,26
26.03.2024;14:35;4,26
26.03.2024;14:20;4,26
26.03.2024;14:05;4,26
26.03.2024;13:50;4,26
26.03.2024;13:35;4,26
26.03.2024;13:20;4,26
26.03.2024;13:05;4,26
26.03.2024;12:50;4,26
26.03.2024;12:35;4,26
26.03.2024;12:20;4,26
26.03.2024;12:05;4,26
26.03.2024;11:50;4,26
26.03.2024;11:35;4,26
26.03.2024;11:20;4,26
26.03.2024;11:05;4,26
26.03.2024;10:50;4,26
26.03.2024;10:35;4,26
26.03.2024;10:20;4,26
26.03.2024;10:05;4,26
26.03.2024;09:50;4,26
26.03.2024;09:35;4,26
26.03.2024;09:20;4,26
26.03.2024;09:05;4,26
26.03.2024;08:50;4,26
26.03.2024;08:35;4,26
26.03.2024;08:20;4,27
26.03.2024;08:05;4,26
26.03.2024;07:50;4,27
26.03.2024;07:35;4,26
26.03.2024;07:20;4,27
26.03.2024;07:05;4,27
26.03.2024;06:49;4,27
26.03.2024;06:34;4,27
26.03.2024;06:19;4,27
26.03.2024;06:04;4,27
26.03.2024;05:49;4,27
26.03.2024;05:34;4,27
26.03.2024;05:19;4,27
26.03.2024;04:49;4,27
26.03.2024;04:34;4,27
26.03.2024;04:19;4,27
26.03.2024;04:04;4,27
26.03.2024;03:49;4,27
26.03.2024;03:34;4,27
26.03.2024;03:19;4,27
26.03.2024;03:04;4,27
26.03.2024;02:49;4,27
26.03.2024;02:34;4,27
26.03.2024;02:19;4,27
26.03.2024;02:04;4,27
26.03.2024;01:49;4,27
26.03.2024;01:34;4,27
26.03.2024;01:19;4,27
26.03.2024;01:04;4,27
26.03.2024;00:49;4,27
26.03.2024;00:34;4,27
26.03.2024;00:19;4,27
26.03.2024;00:04;4,27
25.03.2024;23:49;4,27
25.03.2024;23:34;4,27
25.03.2024;23:19;4,27
25.03.2024;23:04;4,27
25.03.2024;22:49;4,27
25.03.2024;22:34;4,28
25.03.2024;22:19;4,28
25.03.2024;22:04;4,28
25.03.2024;21:49;4,28
25.03.2024;21:34;4,28
25.03.2024;21:19;4,28
25.03.2024;21:04;4,28
25.03.2024;20:49;4,28
25.03.2024;20:34;4,27
25.03.2024;20:19;4,28
25.03.2024;20:04;4,28
25.03.2024;19:49;4,27
25.03.2024;19:34;4,28
25.03.2024;19:19;4,28
25.03.2024;19:04;4,28
25.03.2024;18:49;4,28
25.03.2024;18:34;4,28
25.03.2024;18:19;4,28
25.03.2024;18:04;4,28
25.03.2024;17:49;4,28
25.03.2024;17:34;4,28
25.03.2024;17:19;4,28
25.03.2024;17:04;4,28
25.03.2024;16:49;4,28
25.03.2024;16:34;4,28
25.03.2024;16:19;4,28
25.03.2024;16:04;4,28
25.03.2024;15:49;4,28
25.03.2024;15:34;4,28
25.03.2024;15:19;4,28
25.03.2024;15:03;4,28
25.03.2024;14:48;4,28
25.03.2024;14:33;4,28
25.03.2024;14:18;4,28
25.03.2024;14:03;4,28
25.03.2024;13:48;4,28
25.03.2024;13:33;4,28
25.03.2024;13:18;4,28
25.03.2024;13:03;4,28
25.03.2024;12:48;4,28
25.03.2024;12:33;4,28
25.03.2024;12:18;4,28
25.03.2024;12:03;4,28
25.03.2024;11:48;4,28
25.03.2024;11:33;4,28
25.03.2024;11:18;4,28
25.03.2024;11:03;4,28
25.03.2024;10:48;4,28
25.03.2024;10:33;4,28
25.03.2024;10:18;4,28
25.03.2024;10:03;4,28
25.03.2024;09:48;4,28
25.03.2024;09:33;4,28
25.03.2024;09:18;4,28
25.03.2024;09:03;4,28
25.03.2024;08:33;4,28
25.03.2024;08:18;4,28
25.03.2024;08:03;4,28
25.03.2024;07:48;4,28
25.03.2024;07:33;4,28
25.03.2024;07:18;4,28
25.03.2024;07:03;4,28
25.03.2024;06:48;4,28
25.03.2024;06:33;4,28
25.03.2024;06:18;4,28
25.03.2024;06:03;4,28
25.03.2024;05:48;4,28
25.03.2024;05:33;4,28
25.03.2024;05:18;4,28
25.03.2024;05:03;4,28
25.03.2024;04:48;4,29
25.03.2024;04:33;4,29
25.03.2024;04:18;4,29
25.03.2024;04:03;4,29
25.03.2024;03:48;4,29
25.03.2024;03:33;4,29
25.03.2024;03:18;4,29
25.03.2024;03:03;4,29
25.03.2024;02:48;4,29
25.03.2024;02:33;4,29
25.03.2024;02:18;4,29
25.03.2024;02:03;4,29
25.03.2024;01:48;4,29
25.03.2024;01:33;4,29
25.03.2024;01:18;4,29
25.03.2024;01:03;4,29
25.03.2024;00:48;4,29
25.03.2024;00:33;4,29
25.03.2024;00:18;4,29
25.03.2024;00:03;4,29
24.03.2024;23:48;4,29
24.03.2024;23:33;4,29
24.03.2024;23:18;4,29
24.03.2024;23:02;4,29
24.03.2024;22:48;4,29
24.03.2024;22:32;4,29
24.03.2024;22:17;4,29
24.03.2024;22:02;4,29
24.03.2024;21:47;4,29
24.03.2024;21:32;4,29
24.03.2024;21:17;4,29
24.03.2024;21:02;4,29
24.03.2024;20:47;4,29
24.03.2024;20:32;4,29
24.03.2024;20:17;4,29
24.03.2024;20:02;4,29
24.03.2024;19:47;4,29
24.03.2024;19:32;4,29
24.03.2024;19:17;4,29
24.03.2024;19:02;4,29
24.03.2024;18:47;4,30
24.03.2024;18:32;4,29
24.03.2024;18:17;4,29
24.03.2024;18:02;4,29
24.03.2024;17:47;4,30
24.03.2024;17:32;4,29
24.03.2024;17:17;4,29
24.03.2024;17:02;4,29
24.03.2024;16:47;4,29
24.03.2024;16:32;4,29
24.03.2024;16:17;4,30
24.03.2024;16:02;4,29
24.03.2024;15:47;4,29
24.03.2024;15:32;4,29
24.03.2024;15:17;4,30
24.03.2024;15:02;4,30
24.03.2024;14:47;4,29
24.03.2024;14:32;4,30
24.03.2024;14:17;4,30
24.03.2024;14:02;4,30
24.03.2024;13:47;4,30
24.03.2024;13:32;4,30
24.03.2024;13:17;4,30
24.03.2024;13:02;4,30
24.03.2024;12:47;4,30
24.03.2024;12:32;4,30
24.03.2024;12:17;4,30
24.03.2024;12:02;4,30
24.03.2024;11:47;4,30
24.03.2024;11:32;4,30
24.03.2024;11:17;4,30
24.03.2024;11:02;4,30
24.03.2024;10:47;4,30
24.03.2024;10:32;4,30
24.03.2024;10:17;4,30
24.03.2024;10:02;4,30
24.03.2024;09:47;4,30
24.03.2024;09:32;4,30
24.03.2024;09:17;4,30
24.03.2024;09:02;4,30
24.03.2024;08:47;4,30
24.03.2024;08:32;4,30
24.03.2024;08:17;4,30
24.03.2024;08:02;4,30
24.03.2024;07:47;4,30
24.03.2024;07:32;4,30
24.03.2024;07:17;4,30
24.03.2024;07:01;4,30
24.03.2024;06:46;4,30
24.03.2024;06:31;4,30
24.03.2024;06:16;4,30
24.03.2024;06:01;4,30
24.03.2024;05:46;4,30
24.03.2024;05:31;4,30
24.03.2024;05:16;4,30
24.03.2024;05:01;4,30
24.03.2024;04:46;4,30
24.03.2024;04:31;4,30
24.03.2024;04:16;4,30
24.03.2024;04:01;4,30
24.03.2024;03:46;4,30
24.03.2024;03:31;4,30
24.03.2024;03:16;4,31
24.03.2024;03:01;4,31
24.03.2024;02:46;4,31
24.03.2024;02:31;4,31
24.03.2024;02:16;4,31
24.03.2024;02:01;4,31
24.03.2024;01:46;4,31
24.03.2024;01:31;4,31
24.03.2024;01:16;4,31
24.03.2024;01:01;4,31
24.03.2024;00:46;4,31
24.03.2024;00:31;4,31
24.03.2024;00:16;4,31
24.03.2024;00:01;4,31
23.03.2024;23:46;4,31
23.03.2024;23:31;4,31
23.03.2024;23:16;4,31
23.03.2024;23:01;4,31
23.03.2024;22:46;4,31
23.03.2024;22:31;4,31
23.03.2024;22:16;4,31
23.03.2024;22:01;4,31
23.03.2024;21:46;4,31
23.03.2024;21:31;4,31
23.03.2024;21:16;4,31
23.03.2024;21:01;4,31
23.03.2024;20:46;4,31
23.03.2024;20:31;4,31
23.03.2024;20:16;4,31
23.03.2024;20:01;4,31
23.03.2024;19:46;4,31
23.03.2024;19:31;4,31
23.03.2024;19:16;4,31
23.03.2024;19:01;4,31
23.03.2024;18:46;4,31
23.03.2024;18:31;4,31
23.03.2024;18:16;4,31
23.03.2024;18:01;4,31
23.03.2024;17:46;4,31
23.03.2024;17:31;4,31
23.03.2024;17:16;4,31
23.03.2024;17:01;4,31
23.03.2024;16:46;4,31
23.03.2024;16:31;4,31
23.03.2024;16:16;4,31
23.03.2024;16:01;4,31
23.03.2024;15:46;4,31
23.03.2024;15:31;4,31
23.03.2024;15:16;4,31
23.03.2024;15:00;4,31
23.03.2024;14:45;4,31
23.03.2024;14:30;4,31
23.03.2024;14:15;4,31
23.03.2024;14:00;4,31
23.03.2024;13:45;4,31
23.03.2024;13:30;4,31
23.03.2024;13:15;4,31
23.03.2024;13:00;4,31
23.03.2024;12:45;4,31
23.03.2024;12:30;4,32
23.03.2024;12:15;4,31
23.03.2024;12:00;4,31
23.03.2024;11:45;4,31
23.03.2024;11:30;4,31
23.03.2024;11:15;4,31
23.03.2024;11:00;4,31
23.03.2024;10:45;4,31
23.03.2024;10:30;4,31
23.03.2024;10:15;4,32
23.03.2024;10:00;4,32
23.03.2024;09:45;4,32
23.03.2024;09:30;4,32
23.03.2024;09:15;4,32
23.03.2024;09:00;4,32
23.03.2024;08:45;4,32
23.03.2024;08:30;4,32
23.03.2024;08:15;4,32
23.03.2024;08:00;4,32
23.03.2024;07:45;4,32
23.03.2024;07:30;4,32
23.03.2024;07:15;4,32
23.03.2024;07:00;4,32
23.03.2024;06:45;4,32
23.03.2024;06:30;4,32
23.03.2024;06:15;4,32
23.03.2024;06:00;4,32
23.03.2024;05:45;4,32
23.03.2024;05:30;4,32
23.03.2024;05:15;4,32
23.03.2024;05:00;4,32
23.03.2024;04:45;4,32
23.03.2024;04:30;4,32
23.03.2024;04:15;4,32
23.03.2024;04:00;4,32
23.03.2024;03:45;4,32
23.03.2024;03:30;4,32
23.03.2024;03:15;4,32
23.03.2024;03:00;4,32
23.03.2024;02:45;4,32
23.03.2024;02:30;4,32
23.03.2024;02:15;4,32
23.03.2024;02:00;4,32
23.03.2024;01:45;4,32
23.03.2024;01:30;4,32
23.03.2024;01:15;4,32
23.03.2024;01:00;4,32
23.03.2024;00:45;4,32
23.03.2024;00:30;4,32
23.03.2024;00:15;4,32
23.03.2024;00:00;4,32
22.03.2024;23:45;4,32
22.03.2024;23:30;4,32
22.03.2024;23:15;4,32
22.03.2024;23:00;4,32
22.03.2024;22:44;4,32
22.03.2024;22:29;4,32
22.03.2024;22:14;4,32
22.03.2024;21:59;4,32
22.03.2024;21:44;4,32
22.03.2024;21:29;4,32
22.03.2024;21:14;4,32
22.03.2024;20:59;4,32
22.03.2024;20:44;4,32
22.03.2024;20:29;4,32
22.03.2024;20:14;4,32
22.03.2024;19:59;4,32
22.03.2024;19:44;4,33
22.03.2024;19:29;4,32
22.03.2024;19:14;4,33
22.03.2024;18:59;4,33
22.03.2024;18:44;4,33
22.03.2024;18:29;4,33
22.03.2024;18:14;4,33
22.03.2024;17:59;4,33
22.03.2024;17:44;4,33
22.03.2024;17:29;4,33
22.03.2024;17:14;4,33
22.03.2024;16:59;4,33
22.03.2024;16:44;4,33
22.03.2024;16:29;4,33
22.03.2024;16:14;4,33
22.03.2024;15:59;4,33
22.03.2024;15:44;4,33
22.03.2024;15:29;4,33
22.03.2024;15:14;4,33
22.03.2024;14:59;4,33
22.03.2024;14:44;4,33
22.03.2024;14:29;4,33
22.03.2024;14:14;4,33
22.03.2024;13:59;4,33
22.03.2024;13:44;4,33
22.03.2024;13:29;4,33
22.03.2024;13:14;4,33
22.03.2024;12:59;4,33
22.03.2024;12:44;4,33
22.03.2024;12:29;4,33
22.03.2024;12:14;4,33
22.03.2024;11:59;4,33
22.03.2024;11:44;4,33
22.03.2024;11:29;4,33
22.03.2024;11:14;4,33
22.03.2024;10:59;4,33
22.03.2024;10:44;4,33
22.03.2024;10:29;4,33
22.03.2024;10:14;4,33
22.03.2024;09:59;4,33
22.03.2024;09:44;4,33
22.03.2024;09:29;4,33
22.03.2024;09:14;4,33
22.03.2024;08:59;4,33
22.03.2024;08:44;4,33
22.03.2024;08:29;4,33
22.03.2024;08:14;4,33
22.03.2024;07:59;4,33
22.03.2024;07:44;4,33
22.03.2024;07:14;4,33
22.03.2024;06:58;4,33
22.03.2024;06:43;4,33
22.03.2024;06:28;4,34
22.03.2024;06:13;4,33
22.03.2024;05:58;4,33
22.03.2024;05:43;4,33
22.03.2024;05:28;4,34
22.03.2024;05:13;4,34
22.03.2024;04:58;4,34
22.03.2024;04:43;4,34
22.03.2024;04:28;4,34
22.03.2024;04:13;4,34
22.03.2024;03:58;4,34
22.03.2024;03:43;4,34
22.03.2024;03:28;4,34
22.03.2024;03:13;4,34
22.03.2024;02:58;4,34
22.03.2024;02:43;4,34
22.03.2024;02:28;4,34
22.03.2024;02:13;4,34
22.03.2024;01:58;4,34
22.03.2024;01:43;4,34
22.03.2024;01:28;4,34
22.03.2024;01:13;4,34
22.03.2024;00:58;4,34
22.03.2024;00:43;4,34
22.03.2024;00:28;4,34
22.03.2024;00:13;4,34
21.03.2024;23:58;4,34
21.03.2024;23:43;4,34
21.03.2024;23:28;4,34
21.03.2024;23:13;4,34
21.03.2024;22:58;4,34
21.03.2024;22:43;4,34
21.03.2024;22:28;4,34
21.03.2024;22:13;4,34
21.03.2024;21:58;4,34
21.03.2024;21:43;4,34
21.03.2024;21:28;4,34
21.03.2024;21:13;4,34
21.03.2024;20:58;4,34
21.03.2024;20:43;4,34
21.03.2024;20:28;4,34
21.03.2024;20:13;4,34
21.03.2024;19:58;4,34
21.03.2024;19:43;4,34
21.03.2024;19:28;4,35
21.03.2024;19:13;4,34
21.03.2024;18:58;4,34
21.03.2024;18:43;4,34
21.03.2024;18:28;4,34
21.03.2024;18:13;4,34
21.03.2024;17:58;4,34
21.03.2024;17:43;4,34
21.03.2024;17:28;4,34
21.03.2024;17:13;4,34
21.03.2024;16:58;4,34
21.03.2024;16:43;4,34
21.03.2024;16:28;4,34
21.03.2024;16:13;4,35
21.03.2024;15:58;4,34
21.03.2024;15:43;4,34
21.03.2024;15:28;4,34
21.03.2024;15:13;4,34
21.03.2024;14:57;4,34
21.03.2024;14:43;4,34
21.03.2024;14:27;4,34
21.03.2024;14:12;4,34
21.03.2024;13:57;4,34
21.03.2024;13:42;4,34
21.03.2024;13:27;4,35
21.03.2024;13:12;4,34
21.03.2024;12:57;4,35
21.03.2024;12:42;4,35
21.03.2024;12:27;4,35
21.03.2024;12:12;4,35
21.03.2024;11:57;4,35
21.03.2024;11:42;4,34
21.03.2024;11:27;4,35
21.03.2024;11:12;4,34
21.03.2024;10:57;4,35
21.03.2024;10:42;4,35
21.03.2024;10:27;4,35
21.03.2024;10:12;4,35
21.03.2024;09:57;4,35
21.03.2024;09:42;4,35
21.03.2024;09:27;4,35
21.03.2024;09:12;4,35
21.03.2024;08:57;4,35
21.03.2024;08:42;4,35
21.03.2024;08:27;4,35
21.03.2024;08:12;4,35
21.03.2024;07:57;4,35
21.03.2024;07:42;4,35
21.03.2024;07:27;4,35
21.03.2024;07:12;4,35
21.03.2024;06:57;4,35
21.03.2024;06:42;4,35
21.03.2024;06:27;4,35
21.03.2024;06:12;4,35
21.03.2024;05:57;4,35
21.03.2024;05:42;4,35
21.03.2024;05:27;4,35
21.03.2024;05:12;4,35
21.03.2024;04:57;4,35
21.03.2024;04:42;4,35
21.03.2024;04:27;4,35
21.03.2024;04:12;4,35
21.03.2024;03:57;4,35
21.03.2024;03:42;4,35
21.03.2024;03:27;4,35
21.03.2024;03:12;4,35
21.03.2024;02:57;4,35
21.03.2024;02:42;4,35
21.03.2024;02:27;4,35
21.03.2024;02:12;4,35
21.03.2024;01:57;4,35
21.03.2024;01:42;4,35
21.03.2024;01:27;4,35
21.03.2024;01:12;4,35
21.03.2024;00:57;4,35
21.03.2024;00:42;4,35
21.03.2024;00:27;4,35
21.03.2024;00:12;4,35
20.03.2024;23:57;4,35
20.03.2024;23:42;4,35
20.03.2024;23:27;4,35
20.03.2024;23:12;4,35
20.03.2024;22:56;4,36
20.03.2024;22:41;4,35
20.03.2024;22:26;4,36
20.03.2024;22:11;4,36
20.03.2024;21:56;4,35
20.03.2024;21:41;4,36
20.03.2024;21:26;4,36
20.03.2024;21:11;4,36
20.03.2024;20:56;4,36
20.03.2024;20:41;4,36
20.03.2024;20:26;4,35
20.03.2024;20:11;4,36
20.03.2024;19:56;4,36
20.03.2024;19:41;4,36
20.03.2024;19:26;4,36
20.03.2024;19:11;4,36
20.03.2024;18:56;4,36
20.03.2024;18:41;4,36
20.03.2024;18:26;4,36
20.03.2024;18:11;4,36
20.03.2024;17:56;4,36
20.03.2024;17:41;4,36
20.03.2024;17:26;4,36
20.03.2024;17:11;4,36
20.03.2024;16:56;4,36
20.03.2024;16:41;4,36
20.03.2024;16:26;4,36
20.03.2024;16:11;4,36
20.03.2024;15:56;4,36
20.03.2024;15:41;4,36
20.03.2024;15:26;4,36
20.03.2024;15:11;4,36
20.03.2024;14:56;4,36
20.03.2024;14:41;4,36
20.03.2024;14:26;4,36
20.03.2024;14:11;4,36
20.03.2024;13:56;4,36
20.03.2024;13:41;4,36
20.03.2024;13:26;4,36
20.03.2024;13:11;4,36
20.03.2024;12:56;4,36
20.03.2024;12:41;4,36
20.03.2024;12:26;4,36
20.03.2024;12:11;4,36
20.03.2024;11:56;4,36
20.03.2024;11:41;4,36
20.03.2024;11:26;4,36
20.03.2024;11:11;4,35
20.03.2024;10:56;4,36
20.03.2024;10:41;4,36
20.03.2024;10:26;4,36
20.03.2024;10:11;4,36
20.03.2024;09:56;4,36
20.03.2024;09:41;4,36
20.03.2024;09:26;4,36
20.03.2024;09:11;4,36
20.03.2024;08:56;4,36
20.03.2024;08:41;4,36
20.03.2024;08:26;4,36
20.03.2024;08:11;4,36
20.03.2024;07:56;4,36
20.03.2024;07:41;4,36
20.03.2024;07:26;4,36
20.03.2024;07:11;4,36
20.03.2024;06:55;4,36
20.03.2024;06:40;4,36
20.03.2024;06:25;4,37
20.03.2024;06:10;4,36
20.03.2024;05:55;4,36
20.03.2024;05:40;4,36
20.03.2024;05:25;4,36
20.03.2024;05:10;4,36
20.03.2024;04:55;4,37
20.03.2024;04:40;4,37
20.03.2024;04:25;4,37
20.03.2024;04:10;4,36
20.03.2024;03:55;4,37
20.03.2024;03:25;4,37
20.03.2024;03:10;4,37
20.03.2024;02:55;4,37
20.03.2024;02:40;4,37
20.03.2024;02:25;4,37
20.03.2024;02:10;4,37
20.03.2024;01:55;4,37
20.03.2024;01:40;4,37
20.03.2024;01:25;4,37
20.03.2024;01:10;4,37
20.03.2024;00:55;4,37
20.03.2024;00:40;4,37
20.03.2024;00:25;4,37
20.03.2024;00:10;4,37
19.03.2024;23:55;4,37
19.03.2024;23:40;4,37
19.03.2024;23:25;4,37
19.03.2024;23:10;4,37
19.03.2024;22:55;4,37
19.03.2024;22:40;4,37
19.03.2024;22:25;4,37
19.03.2024;22:10;4,37
19.03.2024;21:40;4,37
19.03.2024;21:25;4,37
19.03.2024;21:10;4,37
19.03.2024;20:55;4,37
19.03.2024;20:25;4,37
19.03.2024;20:10;4,37
19.03.2024;19:55;4,37
19.03.2024;19:40;4,37
19.03.2024;19:25;4,37
19.03.2024;19:10;4,37
19.03.2024;18:55;4,37
19.03.2024;18:40;4,37
19.03.2024;18:25;4,37
19.03.2024;18:10;4,37
19.03.2024;17:55;4,37
19.03.2024;17:40;4,37
19.03.2024;17:25;4,37
19.03.2024;17:10;4,37
19.03.2024;16:55;4,37
19.03.2024;16:40;4,37
19.03.2024;16:25;4,37
19.03.2024;16:10;4,37
19.03.2024;15:55;4,37
19.03.2024;15:40;4,37
19.03.2024;15:25;4,37
19.03.2024;15:10;4,37
19.03.2024;14:55;4,37
19.03.2024;14:39;4,37
19.03.2024;14:24;4,37
19.03.2024;14:09;4,37
19.03.2024;13:54;4,37
19.03.2024;13:39;4,37
19.03.2024;13:24;4,37
19.03.2024;13:09;4,37
19.03.2024;12:54;4,37
19.03.2024;12:39;4,37
19.03.2024;12:24;4,37
19.03.2024;12:09;4,37
19.03.2024;11:54;4,37
19.03.2024;11:39;4,37
19.03.2024;11:24;4,38
19.03.2024;11:09;4,37
19.03.2024;10:54;4,37
19.03.2024;10:39;4,38
19.03.2024;10:24;4,38
19.03.2024;10:09;4,38
19.03.2024;09:54;4,38
19.03.2024;09:39;4,38
19.03.2024;09:24;4,38
19.03.2024;09:09;4,38
19.03.2024;08:54;4,38
19.03.2024;08:39;4,38
19.03.2024;08:24;4,38
19.03.2024;08:09;4,38
19.03.2024;07:54;4,38
19.03.2024;07:39;4,38
19.03.2024;07:24;4,38
19.03.2024;07:09;4,38
19.03.2024;06:54;4,38
19.03.2024;06:39;4,38
19.03.2024;06:24;4,38
19.03.2024;06:09;4,38
19.03.2024;05:54;4,38
19.03.2024;05:39;4,38
19.03.2024;05:24;4,38
19.03.2024;05:09;4,38
19.03.2024;04:54;4,38
19.03.2024;04:39;4,38
19.03.2024;04:24;4,38
19.03.2024;04:09;4,38
19.03.2024;03:54;4,38
19.03.2024;03:39;4,38
19.03.2024;03:24;4,38
19.03.2024;03:09;4,38
19.03.2024;02:54;4,38
19.03.2024;02:39;4,38
19.03.2024;02:24;4,38
19.03.2024;02:09;4,39
19.03.2024;01:54;4,38
19.03.2024;01:39;4,39
19.03.2024;01:24;4,38
19.03.2024;01:09;4,38
19.03.2024;00:54;4,39
19.03.2024;00:39;4,39
19.03.2024;00:24;4,39
19.03.2024;00:09;4,39
18.03.2024;23:54;4,39
18.03.2024;23:39;4,39
18.03.2024;23:24;4,39
18.03.2024;23:09;4,39
18.03.2024;22:38;4,39
18.03.2024;22:23;4,39
18.03.2024;22:08;4,39
18.03.2024;21:53;4,39
18.03.2024;21:38;4,39
18.03.2024;21:23;4,39
18.03.2024;21:08;4,39
18.03.2024;20:53;4,39
18.03.2024;20:38;4,39
18.03.2024;20:23;4,39
18.03.2024;20:08;4,39
18.03.2024;19:53;4,39
18.03.2024;19:38;4,39
18.03.2024;19:23;4,39
18.03.2024;19:08;4,39
18.03.2024;18:53;4,39
18.03.2024;18:38;4,39
18.03.2024;18:23;4,39
18.03.2024;18:08;4,39
18.03.2024;17:53;4,39
18.03.2024;17:38;4,39
18.03.2024;17:23;4,39
18.03.2024;17:08;4,39
18.03.2024;16:53;4,39
18.03.2024;16:38;4,39
18.03.2024;16:23;4,39
18.03.2024;16:08;4,39
18.03.2024;15:53;4,39
18.03.2024;15:38;4,39
18.03.2024;15:23;4,39
18.03.2024;15:08;4,39
18.03.2024;14:53;4,39
18.03.2024;14:38;4,39
18.03.2024;14:08;4,39
18.03.2024;13:53;4,39
18.03.2024;13:38;4,39
18.03.2024;13:23;4,39
18.03.2024;13:08;4,39
18.03.2024;12:53;4,39
18.03.2024;12:38;4,39
18.03.2024;12:23;4,39
18.03.2024;12:08;4,39
18.03.2024;11:53;4,39
18.03.2024;11:38;4,39
18.03.2024;11:23;4,39
18.03.2024;11:08;4,39
18.03.2024;10:53;4,39
18.03.2024;10:38;4,39
18.03.2024;10:23;4,39
18.03.2024;10:08;4,39
18.03.2024;09:53;4,40
18.03.2024;09:38;4,39
18.03.2024;09:23;4,39
18.03.2024;09:08;4,40
18.03.2024;08:53;4,40
18.03.2024;08:38;4,40
18.03.2024;08:23;4,40
18.03.2024;08:08;4,40
18.03.2024;07:53;4,40
18.03.2024;07:38;4,40
18.03.2024;07:23;4,40
18.03.2024;07:08;4,40
18.03.2024;06:53;4,40
18.03.2024;06:37;4,40
18.03.2024;06:22;4,40
18.03.2024;06:07;4,40
18.03.2024;05:52;4,40
18.03.2024;05:37;4,40
18.03.2024;05:22;4,40
18.03.2024;05:07;4,40
18.03.2024;04:52;4,40
18.03.2024;04:37;4,40
18.03.2024;04:22;4,40
18.03.2024;04:07;4,40
18.03.2024;03:52;4,40
18.03.2024;03:37;4,40
18.03.2024;03:22;4,40
18.03.2024;03:07;4,40
18.03.2024;02:52;4,40
18.03.2024;02:37;4,40
18.03.2024;02:22;4,40
18.03.2024;02:07;4,40
18.03.2024;01:52;4,40
18.03.2024;01:37;4,40
18.03.2024;01:22;4,40
18.03.2024;01:07;4,40
18.03.2024;00:52;4,40
18.03.2024;00:37;4,40
18.03.2024;00:22;4,40
18.03.2024;00:07;4,41
17.03.2024;23:52;4,41
17.03.2024;23:37;4,41
17.03.2024;23:22;4,41
17.03.2024;23:07;4,41
17.03.2024;22:52;4,41
17.03.2024;22:37;4,41
17.03.2024;22:22;4,41
17.03.2024;22:07;4,41
17.03.2024;21:52;4,41
17.03.2024;21:37;4,41
17.03.2024;21:22;4,41
17.03.2024;21:07;4,41
17.03.2024;20:52;4,41
17.03.2024;20:37;4,41
17.03.2024;20:22;4,41
17.03.2024;20:07;4,41
17.03.2024;19:52;4,41
17.03.2024;19:37;4,41
17.03.2024;19:22;4,41
17.03.2024;19:07;4,41
17.03.2024;18:52;4,41
17.03.2024;18:37;4,41
17.03.2024;18:22;4,41
17.03.2024;18:07;4,41
17.03.2024;17:52;4,41
17.03.2024;17:37;4,41
17.03.2024;17:22;4,41
17.03.2024;17:07;4,41
17.03.2024;16:52;4,41
17.03.2024;16:37;4,41
17.03.2024;16:22;4,41
17.03.2024;16:07;4,41
17.03.2024;15:52;4,41
17.03.2024;15:37;4,41
17.03.2024;15:22;4,41
17.03.2024;15:07;4,41
17.03.2024;14:51;4,41
17.03.2024;14:36;4,41
17.03.2024;14:21;4,41
17.03.2024;14:06;4,41
17.03.2024;13:51;4,41
17.03.2024;13:36;4,41
17.03.2024;13:21;4,41
17.03.2024;13:06;4,41
17.03.2024;12:51;4,41
17.03.2024;12:36;4,41
17.03.2024;12:21;4,41
17.03.2024;12:06;4,41
17.03.2024;11:51;4,41
17.03.2024;11:36;4,41